Date,TemperatureHighF,TemperatureAvgF,TemperatureLowF,DewpointHighF,DewpointAvgF,DewpointLowF,HumidityHigh,HumidityAvg,HumidityLow,PressureMaxIn,PressureMinIn,WindSpeedMaxMPH,WindSpeedAvgMPH,GustSpeedMaxMPH,PrecipitationSumIn
2013-1-1,34.4,28.6,20.0,31.5,26.7,17.7,99,92,82,30.17,30.05,12,3,12,0.02
2013-1-2,28.4,18.0,8.2,22.0,14.5,6.1,100,87,66,30.30,30.15,7,1,7,0.00
2013-1-3,34.4,21.6,6.8,25.3,16.5,4.7,95,82,55,30.35,30.24,18,6,18,0.00
2013-1-4,34.5,31.3,26.0,26.4,23.8,19.0,85,74,64,30.36,30.28,22,10,22,0.00
2013-1-5,38.8,34.0,30.7,31.0,25.7,14.0,88,72,65,30.39,30.18,10,7,10,0.00
2013-1-6,37.7,31.7,26.0,33.7,28.6,22.7,96,88,85,30.36,30.02,20,9,20,0.00
2013-1-7,37.5,29.3,18.8,30.8,25.3,16.5,94,85,71,30.50,30.28,12,4,12,0.00
2013-1-8,47.0,32.5,17.2,36.1,28.1,15.5,100,85,65,30.35,30.25,17,5,17,0.00
2013-1-9,50.7,40.9,31.7,44.2,36.3,28.6,97,84,65,30.52,30.23,20,7,20,0.03
2013-1-10,40.4,33.8,26.4,36.9,31.6,25.0,98,92,87,30.54,30.19,17,7,17,0.02
2013-1-11,60.6,53.7,40.4,57.7,51.4,36.8,99,92,80,30.19,29.90,26,11,26,0.39
2013-1-12,64.1,58.9,49.2,62.0,58.6,47.8,100,99,95,30.02,29.80,20,10,20,0.04
2013-1-13,58.2,54.4,37.8,58.0,53.9,37.0,100,98,94,30.00,29.79,22,12,22,0.58
2013-1-14,37.7,27.2,24.4,37.2,24.8,22.0,98,91,85,30.46,30.01,13,5,13,0.00
2013-1-15,30.9,27.5,26.2,27.3,25.1,23.0,92,90,86,30.42,30.14,12,5,12,0.00
2013-1-16,35.2,32.1,30.1,30.8,29.2,27.5,95,89,80,30.08,29.99,15,6,15,0.00
2013-1-17,42.7,32.3,28.6,34.6,28.2,24.0,95,85,72,30.33,30.07,15,3,15,0.00
2013-1-18,36.5,29.8,17.8,27.4,22.8,15.5,93,76,61,30.55,30.26,23,10,23,0.00
2013-1-19,52.9,45.8,34.8,35.3,32.5,28.0,77,60,48,30.18,29.90,33,20,33,0.00
2013-1-20,34.4,30.1,24.4,21.8,17.5,14.0,72,59,51,30.21,30.01,21,7,21,0.04
2013-1-21,24.5,19.7,16.0,17.8,12.3,3.0,83,73,66,30.24,30.10,18,7,18,0.00
2013-1-22,17.5,15.4,6.2,7.6,6.8,-1.0,74,68,59,30.42,30.16,13,5,7,0.00
2013-1-23,20.6,16.8,9.6,14.4,9.1,3.0,85,72,54,30.38,30.15,20,6,20,0.00
2013-1-24,22.5,16.8,10.2,14.4,9.7,5.3,86,74,60,30.62,30.15,15,6,15,0.00
2013-1-25,24.0,20.9,16.6,22.1,17.6,10.0,95,87,66,30.53,30.07,16,7,16,0.04
2013-1-26,31.5,25.9,18.4,26.1,21.4,15.0,94,83,69,30.48,30.16,12,4,12,0.00
2013-1-27,34.2,27.4,15.2,31.2,23.6,12.7,95,86,74,30.49,30.28,16,9,16,0.10
2013-1-28,48.9,46.2,32.4,48.9,45.8,31.1,100,98,93,30.29,30.02,28,15,28,0.32
2013-1-29,64.1,57.9,48.1,59.3,55.3,48.1,100,91,82,30.06,29.65,30,16,30,0.00
2013-1-30,65.2,52.4,35.5,60.4,49.8,32.1,99,91,83,29.66,29.24,34,17,34,0.69
2013-1-31,35.2,26.0,21.1,32.0,19.9,15.2,94,78,67,29.95,29.39,30,15,30,0.03
2013-2-1,21.1,10.9,4.6,19.4,4.6,-0.5,93,75,67,30.43,29.95,18,6,18,0.00
2013-2-2,29.5,21.5,5.1,25.1,18.3,2.0,92,87,83,30.39,30.03,22,7,22,0.04
2013-2-3,26.5,24.5,13.9,24.2,21.5,10.0,91,88,79,30.15,29.96,18,5,18,0.00
2013-2-4,33.0,24.7,10.4,32.5,22.0,8.0,98,90,76,30.15,29.87,20,6,20,0.04
2013-2-5,34.4,31.4,26.4,32.2,28.9,25.0,98,91,76,30.01,29.86,12,4,12,0.00
2013-2-6,34.9,32.5,32.5,30.4,30.4,24.0,92,92,92,30.29,29.92,10,1,2,0.00
2013-2-7,52.4,38.9,26.3,44.4,34.5,24.0,93,85,71,30.25,29.82,15,6,15,0.01
2013-2-8,47.9,35.8,27.5,43.3,32.6,23.6,96,88,72,30.33,29.79,23,10,23,0.16
2013-2-9,37.2,28.2,19.3,27.8,23.3,17.3,94,82,64,30.46,30.27,12,4,12,0.00
2013-2-10,51.1,40.1,26.1,44.4,32.5,22.8,91,75,53,30.27,29.81,30,11,30,0.02
2013-2-11,50.5,45.5,36.8,49.0,38.3,29.8,98,77,58,30.01,29.75,35,16,35,0.01
2013-2-12,48.3,36.5,28.8,33.3,28.8,25.7,89,74,50,30.13,29.93,17,5,17,0.00
2013-2-13,34.9,29.3,23.6,30.9,27.2,21.6,97,92,83,29.93,29.77,13,4,13,0.09
2013-2-14,50.2,36.5,25.3,43.5,33.6,24.6,100,90,70,30.00,29.83,26,12,26,0.01
2013-2-15,39.4,31.4,19.9,36.6,28.9,18.5,96,91,80,30.16,29.98,18,4,18,0.07
2013-2-16,29.9,20.0,9.7,25.4,16.1,7.7,97,85,69,30.16,30.05,20,4,20,0.00
2013-2-17,29.5,20.0,11.3,19.6,13.4,7.7,92,76,55,30.27,30.14,12,3,12,0.00
2013-2-18,55.2,34.1,18.8,39.1,24.6,13.0,85,69,53,30.27,29.77,30,7,22,0.04
2013-2-19,48.3,32.7,22.9,37.2,26.7,16.8,96,79,62,30.10,29.65,28,11,28,0.22
2013-2-20,24.9,19.8,18.6,18.7,15.1,13.0,89,82,75,30.33,30.10,20,5,20,0.00
2013-2-21,27.4,23.9,20.3,24.6,19.8,15.0,91,84,81,30.39,30.12,28,8,28,0.00
2013-2-22,40.9,33.9,26.8,39.7,32.6,24.0,100,95,90,30.13,29.93,26,9,26,0.10
2013-2-23,41.9,34.7,29.7,33.0,30.1,26.2,98,84,64,30.00,29.91,14,4,14,0.00
2013-2-24,40.4,30.8,25.1,31.2,25.5,22.5,93,81,63,30.19,29.94,16,4,16,0.00
2013-2-25,43.4,32.4,20.3,33.4,26.6,18.8,97,80,62,30.21,29.95,20,8,20,0.00
2013-2-26,44.1,38.5,33.0,43.8,36.0,27.3,99,91,75,29.95,29.40,29,16,29,0.42
2013-2-27,41.6,36.2,31.7,41.1,35.3,31.2,100,96,90,29.71,29.50,26,14,26,0.12
2013-2-28,35.4,32.9,30.6,34.4,32.1,29.9,99,97,94,29.94,29.67,21,7,21,0.02
2013-3-1,34.9,32.0,28.8,33.8,30.5,25.5,100,94,86,30.05,29.93,14,4,14,0.00
2013-3-2,29.5,27.0,25.4,26.0,23.3,21.7,92,86,79,30.09,30.03,16,5,16,0.00
2013-3-3,33.5,25.0,24.8,23.9,22.0,19.0,92,88,85,30.11,30.05,9,4,9,0.00
2013-3-4,41.1,31.0,18.1,30.5,24.4,16.0,95,78,51,30.20,30.04,12,4,12,0.04
2013-3-5,36.2,33.4,31.3,34.0,31.7,30.1,98,94,85,30.08,29.58,24,11,24,0.62
2013-3-6,35.8,31.3,28.8,31.7,30.7,28.3,99,98,97,30.26,29.60,8,4,8,0.30
2013-3-7,39.7,32.9,28.0,33.1,31.3,26.8,97,94,81,30.39,30.09,9,6,9,0.00
2013-3-8,40.1,31.5,22.1,31.4,25.9,20.5,96,81,60,30.50,30.39,13,3,13,0.00
2013-3-9,54.6,40.0,26.5,42.6,34.0,25.0,95,80,59,30.41,30.06,17,7,17,0.00
2013-3-10,66.8,56.2,46.9,48.0,41.2,36.1,67,58,41,30.05,29.83,22,11,22,0.01
2013-3-11,57.1,48.6,38.2,52.5,45.3,34.5,98,89,64,29.86,29.55,34,12,34,1.18
2013-3-12,41.7,37.1,32.6,34.6,33.2,30.0,94,86,72,30.04,29.82,16,8,16,0.02
2013-3-13,33.1,29.4,25.8,31.6,27.0,22.0,96,91,74,30.31,29.99,18,7,18,0.03
2013-3-14,42.2,31.3,22.0,29.6,23.8,19.6,100,75,49,30.37,30.17,18,6,18,0.00
2013-3-15,51.7,37.2,31.4,41.6,31.4,25.4,90,80,65,30.18,29.82,13,3,13,0.00
2013-3-16,58.2,41.8,34.1,45.0,39.3,32.0,98,91,86,30.02,29.60,18,3,18,0.14
2013-3-17,35.6,33.6,31.7,32.2,30.2,28.4,93,87,81,30.16,30.02,18,10,18,0.00
2013-3-18,49.0,39.6,31.8,49.0,38.8,30.4,100,97,85,30.04,29.61,21,8,21,1.09
2013-3-19,41.9,35.9,28.0,35.8,26.6,20.0,91,70,46,30.09,29.81,31,14,31,0.00
2013-3-20,37.7,30.9,23.0,25.6,20.8,13.0,84,66,50,30.09,29.95,23,9,23,0.00
2013-3-21,32.4,25.2,18.3,22.5,17.1,13.2,85,72,59,30.05,29.95,17,6,17,0.00
2013-3-22,41.9,29.8,25.9,25.8,20.2,16.0,74,68,48,30.09,30.01,15,3,15,0.00
2013-3-23,49.5,36.6,25.7,33.4,27.0,19.8,95,70,45,30.09,29.92,15,3,15,0.00
2013-3-24,35.4,32.5,31.1,32.1,29.3,26.4,100,88,72,29.92,29.42,30,14,30,0.28
2013-3-25,36.0,32.0,29.0,35.0,31.6,28.9,100,98,94,29.93,29.43,17,4,17,0.13
2013-3-26,41.0,35.2,29.9,34.4,31.5,28.0,100,87,75,30.23,29.93,13,5,13,0.00
2013-3-27,42.7,36.9,30.2,35.3,29.7,24.3,90,75,62,30.31,30.14,13,6,13,0.00
2013-3-28,49.8,38.3,26.5,36.3,29.0,22.9,88,70,51,30.36,30.28,15,3,15,0.00
2013-3-29,56.1,41.1,25.2,40.9,31.8,23.5,97,71,47,30.33,30.21,13,2,13,0.00
2013-3-30,57.2,44.2,27.0,38.6,32.9,25.3,97,67,43,30.25,29.96,16,4,16,0.00
2013-3-31,56.3,46.9,40.7,49.5,42.7,35.0,100,86,67,29.96,29.75,20,6,20,0.05
2013-4-1,48.4,40.5,30.0,43.4,31.2,21.3,91,70,49,30.12,29.76,18,7,18,0.00
2013-4-2,46.4,33.9,21.3,29.0,22.3,16.9,90,64,42,30.27,30.12,20,4,20,0.00
2013-4-3,47.1,36.5,33.0,28.4,22.0,15.0,60,56,39,30.43,30.25,16,2,16,0.00
2013-4-4,54.2,39.8,29.4,29.7,23.9,19.0,69,54,32,30.37,29.99,16,6,16,0.00
2013-4-5,60.2,44.8,29.4,44.1,31.9,24.0,84,62,43,30.15,29.98,18,5,18,0.01
2013-4-6,63.8,39.6,31.1,39.0,27.6,25.0,80,62,40,30.23,29.92,22,10,22,0.00
2013-4-7,72.9,42.6,42.3,54.0,28.4,28.1,58,57,50,30.21,29.83,20,12,12,0.00
2013-4-8,71.0,57.9,42.3,59.4,48.8,28.1,99,73,57,30.21,29.84,31,13,31,0.07
2013-4-9,80.5,65.4,49.2,65.6,56.8,47.8,99,76,50,30.03,29.88,33,10,33,0.00
2013-4-10,82.7,66.6,61.3,69.0,60.2,57.6,90,81,56,29.93,29.75,33,11,33,0.00
2013-4-11,64.8,60.8,57.2,63.5,59.2,55.8,100,94,88,29.80,29.51,30,7,30,0.85
2013-4-12,57.2,45.0,40.7,57.2,42.7,36.0,100,92,87,29.90,29.47,21,11,21,0.17
2013-4-13,56.5,45.5,38.6,43.3,38.7,34.4,87,78,53,30.04,29.71,25,10,25,0.00
2013-4-14,69.2,51.7,35.7,50.6,42.1,33.0,92,72,44,30.08,29.89,20,8,20,0.00
2013-4-15,68.3,60.3,48.0,58.7,52.1,43.8,91,75,64,29.98,29.88,20,8,20,0.00
2013-4-16,79.5,57.5,56.6,61.0,54.5,53.4,90,90,86,30.12,29.92,19,4,8,0.36
2013-4-17,76.2,62.1,57.4,68.2,58.6,52.0,98,88,71,30.19,29.93,16,5,16,0.90
2013-4-18,81.0,71.2,61.2,68.3,61.3,56.5,98,73,49,29.95,29.58,36,18,36,0.00
2013-4-19,72.6,50.1,40.3,61.0,43.5,33.0,97,79,58,29.95,29.38,30,13,30,0.85
2013-4-20,50.4,42.8,35.1,37.4,33.4,29.0,86,70,53,30.41,29.83,19,6,16,0.00
2013-4-21,54.3,42.3,30.6,36.9,31.2,25.8,82,66,43,30.56,30.39,18,8,18,0.00
2013-4-22,67.6,52.4,34.9,47.6,38.7,28.7,82,61,41,30.40,30.13,21,6,21,0.00
2013-4-23,70.3,57.9,43.1,57.1,48.1,38.8,87,71,53,30.14,29.85,22,9,22,0.00
2013-4-24,63.5,50.7,37.1,56.7,46.3,35.0,98,86,69,30.20,29.74,31,10,31,0.72
2013-4-25,58.0,44.5,33.0,45.6,37.1,29.8,99,77,51,30.38,30.20,25,8,25,0.01
2013-4-26,59.8,46.4,30.1,44.1,35.5,28.4,97,68,42,30.48,30.35,12,2,12,0.00
2013-4-27,68.8,54.2,40.1,51.7,43.8,35.0,89,70,42,30.36,30.06,23,7,23,0.00
2013-4-28,67.8,58.5,53.7,61.9,56.4,50.6,99,93,78,30.06,29.79,22,8,22,0.21
2013-4-29,64.8,58.0,52.7,59.3,55.8,51.6,100,92,78,29.96,29.85,12,4,12,0.04
2013-4-30,76.2,62.7,47.1,62.5,56.2,47.1,100,81,56,30.04,29.95,14,5,14,0.01
2013-5-1,81.6,67.0,52.2,66.4,58.3,51.0,96,76,50,30.16,30.04,17,6,17,0.00
2013-5-2,73.6,64.5,56.2,59.6,56.1,52.0,88,75,57,30.19,30.07,18,7,18,0.00
2013-5-3,75.0,67.5,58.6,60.6,53.5,43.1,88,62,41,30.07,29.95,24,12,24,0.00
2013-5-4,69.1,61.5,55.0,53.2,48.8,43.1,80,64,52,30.00,29.92,25,13,25,0.00
2013-5-5,63.6,58.0,52.4,50.3,46.7,41.1,84,67,45,29.97,29.89,22,8,22,0.00
2013-5-6,58.9,55.5,52.3,57.9,54.2,50.1,99,95,85,29.96,29.89,20,8,20,0.66
2013-5-7,71.3,61.0,54.3,63.1,58.3,54.0,100,91,71,29.97,29.89,15,5,15,0.02
2013-5-8,74.5,62.5,52.3,65.3,58.4,51.8,100,87,61,29.97,29.90,15,2,15,0.56
2013-5-9,79.9,65.5,51.1,66.3,58.9,50.8,100,82,46,30.00,29.91,14,3,14,0.00
2013-5-10,70.8,62.6,58.8,67.1,61.5,58.1,100,97,84,29.94,29.77,36,8,36,1.74
2013-5-11,61.0,52.9,44.5,61.0,51.3,41.7,100,94,83,29.97,29.81,15,5,15,0.18
2013-5-12,55.7,48.1,37.7,42.6,38.4,35.0,98,71,49,30.11,29.97,21,4,21,0.00
2013-5-13,62.1,53.6,42.2,39.6,37.4,34.6,86,55,39,30.17,30.06,14,3,14,0.00
2013-5-14,78.3,60.6,41.1,63.3,49.5,37.8,92,68,51,30.13,29.80,26,11,26,0.00
2013-5-15,86.2,73.8,62.0,70.4,62.8,58.8,90,70,52,29.83,29.75,27,11,27,0.00
2013-5-16,79.0,69.3,63.5,70.1,64.2,59.9,98,84,70,29.94,29.78,20,4,20,0.34
2013-5-17,79.7,66.7,57.6,71.2,63.8,57.6,100,92,65,30.04,29.94,21,4,21,0.29
2013-5-18,80.4,69.4,61.2,71.0,65.7,61.0,100,89,66,30.04,29.93,13,4,13,0.01
2013-5-19,82.0,71.4,60.7,73.6,67.1,60.0,100,87,67,29.97,29.86,14,3,14,0.00
2013-5-20,85.0,75.3,67.3,75.2,70.4,66.0,100,86,68,29.96,29.84,24,8,24,0.00
2013-5-21,85.0,75.5,66.7,70.6,67.6,63.9,98,78,55,29.91,29.75,23,10,23,0.00
2013-5-22,81.2,70.4,62.7,69.4,65.0,61.0,99,84,61,29.80,29.68,24,10,24,0.13
2013-5-23,71.5,62.4,49.5,64.9,59.9,47.6,100,92,72,30.04,29.75,20,6,20,0.40
2013-5-24,64.4,53.5,43.5,50.8,45.5,40.9,93,76,51,30.29,30.04,17,5,17,0.00
2013-5-25,67.0,54.1,40.6,52.7,45.3,39.1,97,74,45,30.39,30.21,10,2,10,0.00
2013-5-26,70.1,59.8,45.8,52.0,47.4,41.8,87,66,45,30.30,30.16,15,3,15,0.00
2013-5-27,80.2,65.2,51.2,66.2,56.3,49.0,97,75,54,30.19,29.93,20,8,20,0.19
2013-5-28,82.9,74.8,66.6,71.2,64.7,60.2,85,71,56,29.98,29.89,29,12,29,0.00
2013-5-29,85.5,75.9,66.8,68.8,64.3,60.8,84,68,50,30.03,29.94,23,10,23,0.00
2013-5-30,87.4,77.0,67.7,73.6,67.8,63.7,92,74,56,30.10,29.96,21,9,21,0.00
2013-5-31,84.3,73.2,66.6,72.1,67.5,64.6,100,83,63,30.02,29.90,36,12,36,0.68
2013-6-1,80.8,73.3,66.6,73.8,69.3,66.3,100,88,73,29.93,29.73,26,14,26,0.06
2013-6-2,77.8,70.3,63.5,69.7,64.6,60.7,100,83,63,29.89,29.75,20,6,20,0.00
2013-6-3,68.5,64.0,55.1,61.6,57.8,51.0,92,81,71,30.04,29.88,12,2,12,0.00
2013-6-4,75.3,68.3,47.2,59.4,59.3,46.0,96,73,49,30.14,29.97,18,0,0,0.00
2013-6-5,81.8,68.4,68.4,59.4,59.4,50.0,73,73,73,30.08,29.82,9,0,0,0.00
2013-6-6,70.6,67.5,61.7,69.0,60.9,59.4,99,80,73,29.97,29.74,9,1,9,0.57
2013-6-7,74.0,64.6,56.0,65.8,60.6,56.0,100,88,70,29.87,29.77,12,3,12,0.00
2013-6-8,75.9,70.3,54.7,66.5,62.7,52.0,99,78,67,30.02,29.77,6,1,6,0.00
2013-6-9,82.2,71.5,59.7,69.4,64.8,58.6,99,81,56,30.05,29.88,18,6,18,0.00
2013-6-10,79.2,68.5,63.6,70.5,66.0,62.4,100,92,69,29.88,29.74,18,5,18,1.02
2013-6-11,83.5,72.7,63.1,73.8,67.6,63.1,100,85,61,29.92,29.81,16,3,16,0.03
2013-6-12,87.6,77.9,67.3,79.8,73.2,65.7,100,86,71,29.88,29.67,18,4,18,0.00
2013-6-13,78.7,69.8,62.3,74.2,65.6,58.1,100,87,61,29.86,29.55,22,6,22,2.20
2013-6-14,78.0,67.6,55.8,68.2,61.4,54.7,99,82,68,30.03,29.87,12,2,12,0.00
2013-6-15,80.4,69.1,54.8,68.0,62.4,53.7,100,81,61,30.10,29.92,13,3,13,0.00
2013-6-16,77.6,72.1,67.4,72.0,68.5,66.0,97,88,78,29.96,29.90,10,2,0,0.12
2013-6-17,84.6,74.2,66.6,75.0,70.0,66.0,100,88,63,29.94,29.84,6,1,0,0.00
2013-6-18,83.7,72.3,64.3,74.0,67.3,60.0,100,85,67,29.96,29.81,7,2,0,0.30
2013-6-19,78.7,67.6,56.1,63.0,58.4,55.0,98,75,45,30.10,29.95,8,2,0,0.00
2013-6-20,84.2,71.4,54.0,67.0,61.0,53.0,100,72,49,30.18,30.09,9,2,9,0.00
2013-6-21,86.0,59.9,58.2,69.0,58.5,56.8,98,96,64,30.18,30.07,6,0,4,0.00
2013-6-22,87.8,59.2,59.1,75.0,58.6,58.5,98,98,69,30.16,30.00,9,0,0,0.00
2013-6-23,83.2,59.1,59.1,65.0,58.5,58.5,100,98,98,30.16,30.02,3,0,0,0.00
2013-6-24,78.0,61.0,59.1,72.1,60.1,58.5,98,97,83,30.16,29.98,10,0,10,0.03
2013-6-25,90.0,78.1,67.6,78.8,72.9,66.9,100,85,64,30.03,29.83,18,5,18,0.00
2013-6-26,83.3,73.6,67.2,77.1,70.7,66.5,100,91,76,29.89,29.73,29,5,29,0.55
2013-6-27,86.5,73.9,67.2,77.9,71.0,67.2,100,92,67,29.75,29.63,12,2,12,0.04
2013-6-28,84.7,72.7,62.4,73.5,67.7,60.9,99,86,56,29.66,29.53,21,3,21,0.02
2013-6-29,78.0,68.3,60.3,70.3,65.1,59.7,100,90,73,29.63,29.53,14,2,14,0.02
2013-6-30,82.5,69.4,63.2,72.8,66.2,62.5,100,90,64,29.80,29.62,15,2,15,0.00
2013-7-1,79.3,68.7,62.8,73.6,66.8,61.8,99,94,79,29.89,29.77,12,3,12,0.05
2013-7-2,81.6,71.8,62.9,72.9,67.9,62.6,100,88,69,29.98,29.87,12,3,12,0.00
2013-7-3,80.9,73.6,67.5,72.4,69.6,66.7,99,88,71,30.08,29.97,15,4,15,0.07
2013-7-4,71.9,69.6,67.7,70.9,69.1,67.4,100,98,94,30.12,30.04,12,4,12,0.76
2013-7-5,77.3,70.6,65.3,73.2,69.1,65.3,100,95,81,30.12,30.03,16,4,16,0.27
2013-7-6,81.3,71.7,67.9,75.5,70.8,68.0,100,97,79,30.10,29.99,27,5,27,1.03
2013-7-7,82.3,72.1,65.2,74.0,68.9,65.0,100,90,71,30.08,29.98,5,1,0,0.00
2013-7-8,85.1,75.5,68.2,79.0,72.5,68.0,100,91,76,30.09,29.99,9,2,9,0.02
2013-7-9,89.5,72.7,72.4,77.0,72.0,71.0,98,97,91,30.04,29.94,12,3,12,0.11
2013-7-10,88.1,71.5,65.7,71.8,70.7,64.8,99,98,94,30.00,29.78,16,2,16,0.63
2013-7-11,79.2,64.2,62.6,71.0,63.7,59.0,100,98,79,29.98,29.88,14,0,14,0.00
2013-7-12,79.8,68.2,56.9,67.0,62.2,56.0,99,82,62,30.06,29.99,8,2,0,0.00
2013-7-13,83.6,73.2,62.6,73.0,67.7,61.0,97,83,67,30.11,30.03,9,2,0,0.00
2013-7-14,87.4,77.8,66.4,80.0,73.4,66.0,100,87,74,30.18,30.10,7,2,0,0.00
2013-7-15,89.9,79.5,68.6,79.0,73.9,68.0,100,84,63,30.26,30.18,6,0,0,0.00
2013-7-16,93.5,81.1,67.9,82.0,75.3,68.0,100,84,59,30.29,30.20,1,0,0,0.00
2013-7-17,94.0,81.9,70.5,83.0,77.1,70.0,100,86,65,30.27,30.12,2,0,0,0.00
2013-7-18,91.8,81.7,69.6,81.0,75.6,69.0,100,83,62,30.15,29.96,2,0,0,0.00
2013-7-19,88.5,78.1,73.0,80.0,75.4,71.0,100,92,75,29.99,29.84,10,2,0,0.34
2013-7-20,85.4,74.7,69.9,78.0,73.1,70.0,100,95,70,29.88,29.80,7,2,0,1.19
2013-7-21,84.5,76.4,67.0,78.0,73.4,67.0,100,91,73,29.94,29.84,9,1,9,0.00
2013-7-22,77.0,72.7,68.5,74.7,71.8,67.8,100,97,89,29.88,29.72,9,1,9,0.19
2013-7-23,85.2,74.8,66.5,79.3,71.4,66.5,100,90,75,29.78,29.68,17,3,17,0.02
2013-7-24,78.7,75.2,58.1,72.0,68.6,56.0,94,80,67,29.97,29.68,12,3,12,0.00
2013-7-25,77.5,67.1,51.9,64.9,59.5,51.0,100,78,58,30.06,29.97,13,3,13,0.00
2013-7-26,79.3,77.4,77.4,64.7,64.7,53.0,65,65,65,30.06,29.93,6,4,4,0.00
2013-7-27,77.4,77.4,65.4,65.0,64.7,59.0,97,65,65,30.03,29.80,11,4,4,0.47
2013-7-28,77.4,77.2,55.5,64.7,64.6,52.0,96,65,65,30.03,29.86,5,4,4,0.00
2013-7-29,78.2,74.9,58.0,65.9,63.6,51.0,93,68,59,30.17,30.03,6,2,6,0.00
2013-7-30,79.5,66.9,53.1,70.2,61.2,52.3,100,84,59,30.21,30.09,7,0,7,0.00
2013-7-31,73.5,69.0,64.4,69.3,66.8,63.6,99,93,85,30.10,29.91,14,3,14,0.00
2013-8-1,80.5,71.5,62.7,70.5,66.9,60.0,100,87,61,29.95,29.87,12,2,12,0.03
2013-8-2,81.3,67.2,55.9,70.3,61.9,54.0,97,85,62,29.98,29.90,15,3,15,0.00
2013-8-3,79.0,70.2,61.0,73.2,67.6,61.0,100,92,71,29.98,29.92,10,1,10,0.18
2013-8-4,76.8,65.9,56.2,65.8,61.0,55.8,100,85,59,30.10,29.98,13,2,13,0.00
2013-8-5,75.6,57.3,52.0,67.4,56.2,52.0,100,96,66,30.10,29.95,5,0,11,0.01
2013-8-6,79.2,68.9,57.8,72.0,64.8,57.2,100,87,71,29.97,29.89,14,3,14,0.01
2013-8-7,82.2,73.6,65.4,76.6,71.9,65.2,100,95,82,29.91,29.83,14,4,14,0.00
2013-8-8,83.2,73.5,69.4,78.9,72.8,69.4,100,98,82,29.91,29.84,24,2,24,1.11
2013-8-9,78.7,71.5,67.0,75.0,70.6,67.0,100,97,84,29.99,29.86,7,1,7,0.23
2013-8-10,82.1,73.9,64.0,73.5,69.9,64.0,100,88,71,30.08,29.99,8,1,8,0.00
2013-8-11,84.4,80.7,66.3,72.9,72.9,63.0,100,77,77,30.06,29.98,6,1,1,0.00
2013-8-12,82.4,80.7,62.5,72.9,72.9,61.0,100,77,77,30.04,29.84,8,1,1,0.07
2013-8-13,80.8,80.6,67.4,72.9,72.8,52.0,100,77,77,30.02,29.80,9,1,1,0.00
2013-8-14,80.8,73.6,49.9,72.9,66.9,49.0,100,80,66,30.15,30.02,10,1,10,0.00
2013-8-15,73.3,59.1,45.2,61.9,54.4,45.0,100,87,60,30.17,30.07,12,1,12,0.00
2013-8-16,76.2,63.4,52.6,64.4,58.0,52.6,100,84,58,30.14,30.09,12,2,12,0.00
2013-8-17,79.7,65.7,53.7,69.2,61.4,53.7,100,87,64,30.17,30.10,14,2,14,0.00
2013-8-18,78.5,66.7,57.0,70.9,63.7,57.0,100,91,70,30.16,30.06,12,2,12,0.00
2013-8-19,80.7,67.2,57.3,72.0,63.1,57.3,100,88,60,30.11,30.03,5,1,5,0.01
2013-8-20,82.5,69.2,56.4,71.9,64.7,56.4,100,87,61,30.15,30.06,10,1,10,0.00
2013-8-21,81.8,71.9,62.8,76.2,69.3,62.4,100,92,76,30.13,30.01,12,2,12,0.00
2013-8-22,83.4,71.4,64.5,75.4,69.6,64.5,100,94,72,30.08,29.97,14,2,14,0.03
2013-8-23,83.8,72.4,65.2,74.7,68.4,61.6,100,88,64,30.11,30.00,10,2,10,0.01
2013-8-24,82.2,68.9,56.6,71.6,64.0,56.0,98,86,59,30.24,30.11,8,2,8,0.00
2013-8-25,83.5,69.2,54.4,68.8,62.8,54.3,100,83,51,30.31,30.19,7,1,7,0.00
2013-8-26,87.0,72.3,62.8,76.3,68.5,62.5,99,89,63,30.22,30.01,10,2,10,0.00
2013-8-27,86.1,75.5,66.5,78.9,73.0,66.5,100,92,76,30.02,29.91,12,2,12,0.00
2013-8-28,90.8,79.0,70.8,81.1,75.2,70.8,100,89,68,29.92,29.81,13,3,13,0.00
2013-8-29,81.6,71.8,64.4,75.4,70.1,64.4,100,95,76,30.01,29.91,10,1,10,0.01
2013-8-30,85.6,72.7,61.2,76.0,68.9,61.2,100,89,65,29.96,29.79,13,2,13,0.00
2013-8-31,84.3,74.5,67.4,78.0,72.5,67.4,100,94,79,29.82,29.73,16,4,16,0.30
2013-9-1,83.3,72.8,65.6,75.6,70.3,65.6,100,93,73,29.80,29.72,13,2,13,0.01
2013-9-2,84.1,73.7,63.1,77.7,70.6,61.1,100,91,69,29.84,29.73,14,2,14,0.00
2013-9-3,74.6,62.6,53.9,63.3,58.2,53.9,100,87,64,30.04,29.84,12,2,12,0.01
2013-9-4,79.2,63.0,47.4,66.7,58.2,47.4,100,86,60,30.13,30.03,14,0,14,0.00
2013-9-5,84.9,67.1,52.8,71.4,60.7,50.6,100,82,57,30.18,30.09,12,1,12,0.00
2013-9-6,77.8,61.5,49.0,58.6,52.4,47.9,98,76,38,30.22,30.09,12,2,12,0.00
2013-9-7,83.0,66.2,48.9,71.0,60.7,48.6,100,84,63,30.09,29.92,14,3,14,0.00
2013-9-8,88.3,73.8,64.2,74.4,68.8,63.6,100,86,60,29.96,29.90,12,2,12,0.00
2013-9-9,88.0,75.1,62.1,75.7,69.8,62.1,100,85,61,30.00,29.92,20,6,20,0.00
2013-9-10,90.8,79.2,72.0,79.7,74.5,70.5,100,86,68,30.08,29.97,16,6,16,0.00
2013-9-11,88.3,77.2,68.4,78.2,73.0,68.4,100,88,67,30.11,29.97,15,5,15,0.00
2013-9-12,77.0,70.8,61.8,72.9,69.7,61.8,100,96,81,29.97,29.79,15,2,15,0.67
2013-9-13,63.9,56.1,47.5,61.7,53.8,47.0,100,93,64,30.07,29.86,12,1,12,0.00
2013-9-14,69.0,52.8,39.3,52.0,46.7,39.0,100,83,49,30.18,30.07,10,1,0,0.00
2013-9-15,74.2,58.3,41.3,62.0,52.8,41.0,100,84,57,30.14,30.01,12,1,0,0.01
2013-9-16,70.3,60.7,54.4,62.0,57.3,53.0,100,89,67,30.27,30.07,8,1,0,0.07
2013-9-17,75.3,59.7,47.9,59.0,53.6,48.0,100,83,50,30.32,30.16,10,2,0,0.00
2013-9-18,78.2,63.2,53.5,67.0,56.6,-99.9,100,86,59,30.16,30.02,12,3,12,0.00
2013-9-19,77.5,68.5,66.4,71.8,66.5,-99.9,100,94,80,30.06,29.92,12,3,12,0.49
2013-9-20,83.9,72.4,65.5,73.2,69.0,65.5,100,90,67,29.97,29.75,20,6,20,1.54
2013-9-21,72.8,63.7,53.1,67.9,60.8,51.1,100,91,61,29.84,29.64,21,3,21,1.22
2013-9-22,66.3,54.6,45.8,55.2,49.7,45.3,100,85,59,30.01,29.84,12,2,12,0.01
2013-9-23,68.0,53.9,42.3,54.2,47.9,41.9,100,82,54,30.12,30.01,17,4,17,0.01
2013-9-24,72.2,54.9,40.9,58.5,49.3,40.8,100,83,56,30.10,29.92,12,2,12,0.00
2013-9-25,70.7,56.5,47.7,59.2,52.6,47.1,100,88,61,29.93,29.86,7,1,7,0.00
2013-9-26,78.8,59.3,43.9,65.2,53.8,43.9,100,85,50,30.06,29.92,10,1,10,0.00
2013-9-27,78.2,60.5,45.8,60.4,53.1,45.3,100,80,44,30.16,30.06,7,1,7,0.00
2013-9-28,78.0,62.2,46.8,61.8,54.4,46.8,100,79,47,30.18,30.04,15,2,15,0.00
2013-9-29,69.2,62.5,56.2,63.7,59.5,55.2,99,90,76,30.05,29.98,17,4,17,0.00
2013-9-30,70.5,63.6,57.7,65.1,61.4,56.6,100,93,80,30.01,29.93,15,3,15,0.01
2013-10-1,77.7,64.8,55.1,67.5,60.9,54.5,100,88,65,30.06,29.98,18,3,18,0.01
2013-10-2,81.1,67.8,58.4,73.1,64.8,57.8,100,91,71,30.08,30.00,13,2,13,0.00
2013-10-3,76.6,68.3,65.0,72.0,67.7,64.4,100,98,83,30.07,29.97,12,2,12,0.68
2013-10-4,80.9,70.8,63.2,74.7,68.0,63.0,100,92,74,30.06,29.98,12,3,12,0.00
2013-10-5,80.3,65.5,65.0,69.0,64.5,64.0,100,97,93,30.03,29.91,11,0,6,0.34
2013-10-6,74.0,65.0,65.0,67.0,64.1,52.0,100,97,97,30.01,29.67,14,0,0,2.17
2013-10-7,65.0,62.3,45.0,64.1,61.2,43.0,97,96,86,30.16,29.77,11,0,0,0.00
2013-10-8,68.5,52.7,38.9,54.1,46.2,38.0,100,81,49,30.29,30.15,15,2,15,0.00
2013-10-9,72.9,56.6,43.6,55.4,48.6,42.9,99,78,45,30.25,30.15,13,3,13,0.00
2013-10-10,74.4,58.1,40.0,56.4,48.5,39.3,100,74,42,30.18,30.06,6,1,6,0.00
2013-10-11,78.7,59.6,44.6,59.3,51.3,44.0,100,78,43,30.10,30.00,9,1,9,0.00
2013-10-12,76.7,61.4,48.8,66.1,57.3,48.3,100,88,67,30.11,30.02,10,2,10,0.00
2013-10-13,73.9,60.3,50.1,65.0,56.3,48.3,100,88,61,30.28,30.10,12,1,12,0.00
2013-10-14,72.6,56.2,42.7,55.9,49.2,41.9,99,80,47,30.32,30.18,16,2,16,0.00
2013-10-15,72.8,60.0,48.1,66.5,58.0,47.0,100,93,78,30.19,29.92,16,5,16,0.01
2013-10-16,66.3,61.2,47.9,63.8,59.0,46.0,100,93,74,29.93,29.84,15,4,15,0.08
2013-10-17,55.6,46.9,39.0,51.8,45.3,38.4,100,94,85,29.98,29.84,12,1,12,0.09
2013-10-18,64.3,51.1,40.8,52.4,45.7,40.3,100,84,56,30.04,29.93,18,6,18,0.01
2013-10-19,49.0,44.9,39.0,46.7,43.4,38.2,99,95,85,29.99,29.82,12,2,12,0.15
2013-10-20,61.1,47.5,36.3,47.7,41.6,35.8,99,82,59,30.04,29.98,21,9,21,0.02
2013-10-21,65.3,53.1,42.0,49.8,44.2,38.9,91,73,50,30.00,29.88,26,9,26,0.01
2013-10-22,52.3,43.6,30.8,45.7,35.2,28.5,95,74,45,30.03,29.86,12,2,12,0.08
2013-10-23,45.0,39.8,39.5,39.4,38.8,33.0,97,96,86,30.03,29.75,10,0,10,0.21
2013-10-24,42.1,38.7,34.8,38.7,37.9,33.0,97,97,93,30.26,29.76,7,0,6,0.05
2013-10-25,50.4,37.7,29.2,38.0,31.6,27.4,96,80,53,30.44,30.26,15,2,15,0.01
2013-10-26,49.0,39.9,31.2,40.5,33.1,27.7,87,77,61,30.29,29.94,26,9,26,0.00
2013-10-27,56.7,42.5,29.8,45.0,35.9,28.5,100,79,51,30.12,30.04,12,1,12,0.00
2013-10-28,62.9,43.9,28.3,44.3,36.0,27.3,100,77,44,30.30,30.10,10,1,10,0.01
2013-10-29,56.8,43.7,34.5,48.0,39.9,34.0,99,87,67,30.36,30.23,5,1,4,0.00
2013-10-30,60.7,54.4,49.4,61.0,53.9,47.0,100,98,88,30.22,30.07,7,1,0,0.09
2013-10-31,63.8,62.5,59.8,63.5,62.2,59.0,100,99,98,29.53,29.31,34,21,34,0.86
2013-11-1,63.3,55.1,48.4,62.4,50.1,46.3,100,84,62,29.72,29.36,24,8,24,0.16
2013-11-2,55.5,49.0,43.8,46.3,42.9,40.1,94,80,62,30.06,29.71,18,4,18,0.00
2013-11-3,54.7,44.0,35.6,44.2,40.0,33.4,98,87,63,30.39,30.06,8,2,8,0.00
2013-11-4,56.7,45.6,34.4,44.9,39.4,32.6,94,80,60,30.43,30.32,15,7,15,0.00
2013-11-5,62.9,53.3,47.8,48.3,44.6,41.0,88,73,55,30.41,30.22,13,4,13,0.00
2013-11-6,64.7,59.2,49.6,55.8,50.1,41.0,76,72,62,30.21,29.94,29,10,29,0.31
2013-11-7,63.9,63.9,63.9,55.8,55.8,30.0,75,75,75,30.23,30.00,11,6,9,0.05
2013-11-8,63.9,63.8,39.6,55.8,55.7,28.0,75,75,74,30.37,30.00,7,6,9,0.00
2013-11-9,63.9,63.6,37.8,55.8,55.5,30.0,76,75,75,30.25,30.00,26,6,9,0.00
2013-11-10,63.9,63.8,28.8,55.8,55.7,26.0,90,75,75,30.34,30.00,9,6,9,0.00
2013-11-11,63.9,63.9,63.9,55.8,55.8,26.0,75,75,75,30.29,30.00,17,6,9,0.12
2013-11-12,63.9,35.8,22.6,55.8,30.8,19.7,96,83,72,30.62,30.00,14,5,14,0.04
2013-11-13,39.6,28.4,18.8,26.4,22.2,17.0,96,79,50,30.65,30.42,17,6,17,0.00
2013-11-14,53.4,38.6,27.3,30.7,25.8,22.3,83,62,36,30.42,30.17,24,12,24,0.00
2013-11-15,52.1,43.6,34.4,43.0,32.0,24.0,90,64,47,30.19,30.10,20,9,20,0.00
2013-11-16,59.0,52.1,45.8,55.8,49.8,42.9,100,92,88,30.14,29.91,24,10,24,0.00
2013-11-17,62.6,58.7,49.6,61.7,56.4,42.3,99,92,70,29.92,29.47,38,17,38,0.81
2013-11-18,52.4,45.0,34.6,42.5,37.6,30.2,92,76,59,30.17,29.74,23,10,23,0.00
2013-11-19,41.5,33.5,28.3,33.0,29.4,26.5,95,85,69,30.37,30.17,13,2,13,0.00
2013-11-20,49.8,37.1,28.5,36.7,31.0,25.4,90,79,59,30.36,30.25,20,9,20,0.00
2013-11-21,56.6,47.2,38.8,49.8,41.4,32.8,95,80,67,30.34,30.20,18,6,18,0.04
2013-11-22,52.5,50.4,49.2,52.5,50.0,31.0,100,99,94,30.35,30.15,15,5,15,0.15
2013-11-23,49.2,45.0,19.7,48.9,43.6,13.9,99,95,70,30.55,30.17,18,6,18,0.00
2013-11-24,28.8,15.0,14.3,14.2,10.6,9.0,83,83,78,30.70,30.55,20,1,20,0.00
2013-11-25,35.9,20.1,14.3,29.3,15.1,10.1,93,81,63,30.61,30.21,24,2,24,0.01
2013-11-26,33.8,31.6,29.8,33.2,30.8,29.0,98,97,90,30.23,29.93,13,2,13,0.08
2013-11-27,30.7,29.8,29.8,29.3,29.3,17.0,98,98,98,30.29,29.91,21,0,0,0.00
2013-11-28,32.3,29.8,21.5,29.3,29.3,14.0,98,98,82,30.47,29.93,20,0,0,0.00
2013-11-29,36.5,29.8,21.2,29.3,29.3,13.0,98,98,87,30.66,29.93,9,0,0,0.00
2013-11-30,48.4,36.5,29.8,35.4,31.0,21.0,98,82,56,30.54,29.93,15,4,15,0.00
2013-12-1,50.4,39.6,32.8,40.0,33.8,28.3,90,80,66,30.20,29.96,16,6,16,0.00
2013-12-2,47.5,38.9,31.4,42.0,36.5,29.9,98,91,80,29.96,29.80,12,3,12,0.04
2013-12-3,51.4,42.2,33.9,49.9,41.3,33.9,100,97,87,29.90,29.80,14,5,14,0.06
2013-12-4,60.3,53.1,43.4,58.0,51.7,42.0,100,95,90,29.88,29.73,21,8,21,0.00
2013-12-5,62.5,55.6,32.7,59.6,54.4,30.0,100,96,89,30.12,29.74,25,7,25,0.28
2013-12-6,52.7,35.1,25.2,51.9,34.5,24.7,98,98,97,30.40,29.86,12,4,12,0.58
2013-12-7,28.7,23.8,11.9,25.0,23.3,9.0,98,98,83,30.62,30.39,8,4,7,0.00
2013-12-8,31.8,23.8,23.8,23.3,23.3,12.0,98,98,98,30.56,30.05,15,4,4,0.00
2013-12-9,32.4,23.8,23.8,23.3,23.3,21.0,98,98,90,30.47,30.01,14,4,4,0.00
2013-12-10,29.0,22.9,16.0,23.3,21.1,11.0,98,93,74,30.47,30.16,18,5,18,0.10
2013-12-11,36.6,21.1,7.4,26.1,16.0,5.3,96,81,63,30.52,30.30,18,7,18,0.00
2013-12-12,23.6,15.2,4.2,11.9,8.3,1.0,89,75,51,30.58,30.38,18,7,18,0.00
2013-12-13,38.3,20.1,17.3,30.2,13.5,7.0,94,75,71,30.39,30.19,16,4,16,0.02
2013-12-14,36.3,33.1,30.7,36.3,32.7,30.0,100,99,94,30.19,29.72,19,6,19,0.43
2013-12-15,30.6,26.4,24.9,30.5,23.8,18.0,100,90,76,30.13,29.85,20,9,20,0.00
2013-12-16,29.8,25.6,22.8,28.8,24.3,21.8,98,95,87,30.16,30.01,16,5,16,0.09
2013-12-17,32.5,29.3,29.3,28.8,28.8,25.0,98,98,98,30.17,30.00,9,5,5,0.00
2013-12-18,33.4,28.8,20.4,28.8,23.1,17.9,98,80,62,30.27,30.02,22,9,22,0.00
2013-12-19,47.4,40.8,33.0,40.2,33.3,23.9,86,74,67,30.10,29.97,24,11,24,0.00
2013-12-20,57.9,49.6,46.1,45.2,43.4,38.4,83,79,70,29.97,29.81,24,14,24,0.00
2013-12-21,66.1,57.6,50.4,64.0,55.8,45.1,100,94,82,29.92,29.43,44,16,44,1.63
2013-12-22,61.7,53.5,46.1,61.3,51.5,38.0,100,93,81,30.00,29.49,33,13,33,0.56
2013-12-23,46.1,46.0,31.5,44.2,44.1,21.0,93,93,80,30.37,29.92,9,1,1,0.00
2013-12-24,46.1,46.1,46.1,44.2,44.2,9.0,93,93,93,30.58,29.92,11,1,1,0.00
2013-12-25,46.1,35.7,19.6,44.2,30.8,14.0,93,82,62,30.54,29.92,20,5,20,0.00
2013-12-26,38.4,32.0,26.2,28.0,25.1,20.4,88,76,58,30.36,30.18,20,9,20,0.00
2013-12-27,47.1,35.3,26.6,35.5,29.3,23.8,91,79,62,30.42,30.29,14,8,14,0.00
2013-12-28,52.9,39.9,31.5,39.6,33.1,28.5,89,77,58,30.29,30.02,20,10,20,0.00
2013-12-29,43.1,38.4,32.2,42.5,36.0,30.4,99,91,67,30.03,29.77,16,5,16,0.41
2013-12-30,32.2,26.9,22.4,30.3,23.7,18.0,93,87,81,30.24,30.00,17,5,17,0.00
2013-12-31,31.8,25.7,22.0,24.3,19.8,16.0,86,78,68,30.39,30.17,21,9,21,0.00
2014-1-1,42.1,24.2,22.1,31.0,21.7,19.6,92,90,71,30.32,30.05,11,2,6,0.00
2014-1-2,30.5,20.6,8.4,29.0,19.1,6.0,98,94,90,30.29,29.82,24,8,24,0.27